Location: ????????
(38.4362°N, 22.8767°E)
Time: 04:49:49
(UTC+00:00)

Orbus 7S? - Pass Details

Date: 23 April 2024
Orbit: 369 x 6259 km, 56.9° (Epoch: 05 March)

Event Time Altitude Azimuth Distance (km) Brightness Sun altitude
Exits shadow 02:31:03 24° 234° (SW) 1,043 4.1 -13.5°
Maximum altitude 02:32:54 67° 313° (NW) 451 2.8 -13.2°
Drops below altitude 10° 02:35:34 10° 37° (NE) 1,371 6.4 -12.7°
Sets 02:37:24 0° 40° (NE) 2,251 7.8 -12.4°
